| time (UTC) | temp F | wind direction | speed MPH | gust MPH | rain 1hr in | rain 24hr in | rain mn in | humidity % | barometer mb |
| 20260901131536 | 46 | 285 | 0.0 | 0.0 | 0.00 | 0.00 | 0.00 | 79 | 1015.7 |
| 20260901130033 | 45 | 285 | 0.0 | 0.0 | 0.00 | 0.00 | 0.00 | 80 | 1015.7 |
| 20260901124534 | 45 | 279 | 0.0 | 0.0 | 0.00 | 0.00 | 0.00 | 81 | 1015.8 |
| 20260901123004 | 44 | 287 | 0.0 | 0.0 | 0.00 | 0.00 | 0.00 | 81 | 1015.8 |
| 20260901121501 | 44 | 287 | 0.0 | 0.0 | 0.00 | 0.00 | 0.00 | 81 | 1015.8 |
| 20260901120058 | 44 | 287 | 0.0 | 0.0 | 0.00 | 0.00 | 0.00 | 81 | 1015.7 |
| 20260901114555 | 44 | 287 | 0.0 | 0.0 | 0.00 | 0.00 | 0.00 | 80 | 1015.8 |
| 20260901113101 | 45 | 287 | 0.0 | 0.0 | 0.00 | 0.00 | 0.00 | 80 | 1016.0 |
| 20260901111552 | 45 | 283 | 0.0 | 0.0 | 0.00 | 0.00 | 0.00 | 79 | 1016.0 |
| 20260901110049 | 45 | 286 | 0.0 | 0.0 | 0.00 | 0.00 | 0.00 | 80 | 1015.9 |
| 20260901104557 | 45 | 286 | 0.0 | 0.0 | 0.00 | 0.00 | 0.00 | 80 | 1016.0 |
| 20260901103046 | 44 | 286 | 0.0 | 0.0 | 0.00 | 0.00 | 0.00 | 81 | 1016.2 |
| 20260901101547 | 45 | 286 | 0.0 | 0.0 | 0.00 | 0.00 | 0.00 | 80 | 1016.2 |
| 20260901100058 | 44 | 286 | 0.0 | 0.0 | 0.00 | 0.00 | 0.00 | 80 | 1016.2 |
| 20260901094539 | 45 | 286 | 0.0 | 0.0 | 0.00 | 0.00 | 0.00 | 79 | 1016.2 |
| 20260901093038 | 45 | 258 | 0.0 | 0.0 | 0.00 | 0.00 | 0.00 | 78 | 1016.2 |
| 20260901091539 | 45 | 251 | 0.0 | 0.0 | 0.00 | 0.00 | 0.00 | 78 | 1016.2 |
| 20260901090012 | 46 | 251 | 0.0 | 0.0 | 0.00 | 0.00 | 0.00 | 77 | 1016.2 |
| 20260901084506 | 46 | 246 | 0.0 | 0.0 | 0.00 | 0.00 | 0.00 | 77 | 1016.2 |
| 20260901083002 | 46 | 246 | 0.0 | 0.0 | 0.00 | 0.00 | 0.00 | 74 | 1016.2 |
| 20260901081603 | 47 | 246 | 0.0 | 0.0 | 0.00 | 0.00 | 0.00 | 75 | 1016.3 |
| 20260901080100 | 45 | 264 | 0.0 | 0.0 | 0.00 | 0.00 | 0.00 | 76 | 1016.4 |
| 20260901074557 | 46 | 285 | 0.0 | 0.0 | 0.00 | 0.00 | 0.00 | 75 | 1016.5 |
| 20260901073054 | 46 | 285 | 0.0 | 0.0 | 0.00 | 0.00 | 0.00 | 76 | 1016.6 |
| 20260901071553 | 46 | 251 | 0.0 | 0.0 | 0.00 | 0.00 | 0.00 | 76 | 1016.6 |
| 20260901070057 | 46 | 295 | 0.0 | 0.0 | 0.00 | 0.00 | 0.00 | 76 | 1016.6 |
| 20260901064550 | 46 | 295 | 0.0 | 0.0 | 0.00 | 0.00 | 0.00 | 76 | 1016.7 |
| 20260901063046 | 45 | 295 | 0.0 | 0.0 | 0.00 | 0.00 | 0.00 | 79 | 1016.7 |
| 20260901061543 | 45 | 295 | 0.0 | 0.0 | 0.00 | 0.00 | 0.00 | 77 | 1016.6 |
| 20260901060042 | 47 | 295 | 0.0 | 0.0 | 0.00 | 0.00 | 0.00 | 73 | 1016.8 |
| 20260901054541 | 47 | 295 | 0.0 | 0.0 | 0.00 | 0.00 | 0.00 | 74 | 1016.8 |
| 20260901053035 | 47 | 296 | 0.0 | 0.0 | 0.00 | 0.00 | 0.00 | 73 | 1016.9 |
| 20260901051541 | 48 | 298 | 0.0 | 0.0 | 0.00 | 0.00 | 0.00 | 71 | 1016.9 |
| 20260901050034 | 48 | 287 | 0.0 | 0.0 | 0.00 | 0.00 | 0.00 | 71 | 1016.9 |
| 20260901044540 | 49 | 279 | 0.0 | 0.0 | 0.00 | 0.00 | 0.00 | 70 | 1016.9 |
| 20260901043031 | 49 | 262 | 0.0 | 0.0 | 0.00 | 0.00 | 0.00 | 69 | 1016.9 |
| 20260901041530 | 49 | 215 | 0.0 | 0.0 | 0.00 | 0.00 | 0.00 | 70 | 1016.9 |
| 20260901040035 | 49 | 176 | 0.0 | 0.0 | 0.00 | 0.00 | 0.00 | 70 | 1016.7 |
| 20260901034529 | 50 | 176 | 0.0 | 0.0 | 0.00 | 0.00 | 0.00 | 68 | 1016.6 |
| 20260901033027 | 52 | 176 | 0.0 | 0.0 | 0.00 | 0.00 | 0.00 | 64 | 1016.4 |
| 20260901031526 | 53 | 176 | 0.0 | 0.0 | 0.00 | 0.00 | 0.00 | 63 | 1016.3 |
| 20260901030025 | 56 | 176 | 0.0 | 0.0 | 0.00 | 0.00 | 0.00 | 57 | 1016.2 |
| 20260901024528 | 59 | 176 | 0.0 | 0.0 | 0.00 | 0.00 | 0.00 | 53 | 1016.0 |
| 20260901023023 | 62 | 176 | 0.0 | 0.0 | 0.00 | 0.00 | 0.00 | 46 | 1016.0 |
| 20260901021521 | 64 | 136 | 0.0 | 1.0 | 0.00 | 0.00 | 0.00 | 43 | 1016.0 |
| 20260901020021 | 67 | 162 | 0.0 | 1.0 | 0.00 | 0.00 | 0.00 | 41 | 1016.0 |
| 20260901014520 | 69 | 162 | 0.0 | 1.0 | 0.00 | 0.00 | 0.00 | 38 | 1016.0 |
| 20260901013021 | 71 | 162 | 0.0 | 3.0 | 0.00 | 0.00 | 0.00 | 36 | 1016.1 |
| 20260901011520 | 72 | 179 | 0.0 | 2.0 | 0.00 | 0.00 | 0.00 | 35 | 1016.1 |
| 20260901010017 | 73 | 255 | 0.0 | 0.0 | 0.00 | 0.00 | 0.00 | 33 | 1016.3 |
| 20260901004530 | 74 | 240 | 0.0 | 2.0 | 0.00 | 0.00 | 0.00 | 32 | 1016.4 |
| 20260901003020 | 75 | 326 | 0.0 | 2.0 | 0.00 | 0.00 | 0.00 | 32 | 1016.4 |
| 20260901001523 | 76 | 152 | 1.0 | 3.0 | 0.00 | 0.00 | 0.00 | 31 | 1016.5 |
| 20260901000015 | 75 | 191 | 1.0 | 9.0 | 0.00 | 0.00 | 0.00 | 33 | 1016.5 |
| 20260831234512 | 76 | 292 | 1.0 | 4.0 | 0.00 | 0.00 | 0.00 | 31 | 1016.5 |
| 20260831233009 | 76 | 228 | 0.0 | 7.0 | 0.00 | 0.00 | 0.00 | 32 | 1016.5 |
| 20260831231505 | 76 | 243 | 2.0 | 6.0 | 0.00 | 0.00 | 0.00 | 32 | 1016.6 |
| 20260831230005 | 76 | 254 | 1.0 | 6.0 | 0.00 | 0.00 | 0.00 | 33 | 1016.7 |
| 20260831224503 | 75 | 248 | 2.0 | 4.0 | 0.00 | 0.00 | 0.00 | 34 | 1016.8 |
| 20260831223003 | 76 | 199 | 1.0 | 4.0 | 0.00 | 0.00 | 0.00 | 34 | 1016.9 |
| 20260831221557 | 75 | 249 | 2.0 | 6.0 | 0.00 | 0.00 | 0.00 | 35 | 1016.9 |
| 20260831220158 | 74 | 276 | 3.0 | 12.0 | 0.00 | 0.00 | 0.00 | 35 | 1016.9 |
| 20260831214622 | 75 | 226 | 3.0 | 10.0 | 0.00 | 0.00 | 0.00 | 35 | 1016.9 |
| 20260831213053 | 74 | 288 | 3.0 | 6.0 | 0.00 | 0.00 | 0.00 | 37 | 1017.0 |
| 20260831211523 | 74 | 307 | 3.0 | 7.0 | 0.00 | 0.00 | 0.00 | 37 | 1017.1 |
| 20260831210019 | 73 | 338 | 1.0 | 8.0 | 0.00 | 0.00 | 0.00 | 38 | 1017.2 |
| 20260831204517 | 73 | 320 | 3.0 | 7.0 | 0.00 | 0.00 | 0.00 | 37 | 1017.3 |
| 20260831203014 | 72 | 252 | 1.0 | 6.0 | 0.00 | 0.00 | 0.00 | 38 | 1017.4 |
| 20260831201523 | 72 | 2 | 4.0 | 9.0 | 0.00 | 0.00 | 0.00 | 38 | 1017.5 |
| 20260831200025 | 71 | 288 | 2.0 | 7.0 | 0.00 | 0.00 | 0.00 | 38 | 1017.6 |
| 20260831194545 | 72 | 309 | 3.0 | 9.0 | 0.00 | 0.00 | 0.00 | 39 | 1017.8 |
| 20260831193042 | 72 | 293 | 3.0 | 8.0 | 0.00 | 0.00 | 0.00 | 39 | 1017.8 |
| 20260831191536 | 71 | 314 | 3.0 | 12.0 | 0.00 | 0.00 | 0.00 | 40 | 1017.9 |
| 20260831190049 | 71 | 259 | 1.0 | 7.0 | 0.00 | 0.00 | 0.00 | 40 | 1018.2 |
| 20260831184533 | 70 | 8 | 4.0 | 10.0 | 0.00 | 0.00 | 0.00 | 41 | 1018.3 |
| 20260831183045 | 70 | 303 | 1.0 | 10.0 | 0.00 | 0.00 | 0.00 | 42 | 1018.5 |
| 20260831181528 | 69 | 53 | 2.0 | 9.0 | 0.00 | 0.00 | 0.00 | 42 | 1018.5 |
| 20260831180025 | 69 | 37 | 5.0 | 14.0 | 0.00 | 0.00 | 0.00 | 42 | 1018.6 |
| 20260831174524 | 68 | 1 | 4.0 | 15.0 | 0.00 | 0.00 | 0.00 | 44 | 1018.7 |
| 20260831173022 | 68 | 22 | 5.0 | 11.0 | 0.00 | 0.00 | 0.00 | 45 | 1018.7 |
| 20260831171519 | 67 | 229 | 2.0 | 6.0 | 0.00 | 0.00 | 0.00 | 45 | 1018.7 |
| 20260831170018 | 67 | 281 | 1.0 | 9.0 | 0.00 | 0.00 | 0.00 | 48 | 1018.7 |
| 20260831164513 | 66 | 321 | 1.0 | 7.0 | 0.00 | 0.00 | 0.00 | 48 | 1018.7 |
| 20260831163033 | 66 | 323 | 1.0 | 6.0 | 0.00 | 0.00 | 0.00 | 50 | 1018.7 |
| 20260831161512 | 64 | 262 | 2.0 | 7.0 | 0.00 | 0.00 | 0.00 | 50 | 1018.6 |
| 20260831160007 | 64 | 327 | 0.0 | 4.0 | 0.00 | 0.00 | 0.00 | 51 | 1018.6 |
| 20260831154618 | 62 | 285 | 1.0 | 8.0 | 0.00 | 0.00 | 0.00 | 51 | 1018.5 |
| 20260831153056 | 61 | 261 | 2.0 | 9.0 | 0.00 | 0.00 | 0.00 | 52 | 1018.4 |
| 20260831151551 | 60 | 304 | 2.0 | 9.0 | 0.00 | 0.00 | 0.00 | 54 | 1018.3 |
| 20260831150047 | 59 | 314 | 1.0 | 6.0 | 0.00 | 0.00 | 0.00 | 56 | 1018.4 |
| 20260831144544 | 58 | 244 | 2.0 | 5.0 | 0.00 | 0.00 | 0.00 | 57 | 1018.2 |
| 20260831143039 | 56 | 271 | 0.0 | 2.0 | 0.00 | 0.00 | 0.00 | 60 | 1018.1 |
| 20260831141534 | 55 | 268 | 0.0 | 2.0 | 0.00 | 0.00 | 0.00 | 61 | 1018.0 |
| 20260831140038 | 54 | 295 | 0.0 | 2.0 | 0.00 | 0.00 | 0.00 | 64 | 1017.8 |
| 20260831134527 | 53 | 314 | 0.0 | 5.0 | 0.00 | 0.00 | 0.00 | 64 | 1017.6 |
| 20260831133022 | 51 | 316 | 0.0 | 2.0 | 0.00 | 0.00 | 0.00 | 68 | 1017.6 |